HIBER-1 (43744 NORAD) Tracking and Keplerian Element Data

This shows tracking and keplerian element data for the satellite.

Feedback or suggestion? Click here.




ElementValue
Catalog43744
NameHIBER-1
Epoch Orbit23077
Epoch Day14.17928459
Epoch Year2023
RAAN106.2013
Inclination97.337
Eccentricity0.0008324
Argument of Perigee348.4804
Mean Anonmoly11.6266
Mean Motion15.68039399
Decay Rate0.00250457
L11 43744U 18096AB 23014.17928459 .00250457 00000+0 21965-2 0 9998
L22 43744 97.3370 106.2013 0008324 348.4804 11.6266 15.68039399230778



Live tracking and technical data element details for HIBER-1 (NORAD 43744). HIBER-1 can be tracked NOW for your location showing map with azimuth and elevation plus other details from your city location.







IsCatalogInMostPopularTable: catalog: 43744, numindb: 363
Update: records affected: 1



GetName: 43744 HIBER-1

Hit Count: updated at: Fri, 16 May 2025 10:07:28 GMT